Location: Derby
(52.9213°N, 1.4761°W)
Time: 19:59:46
(UTC+01:00)

Tiros 1 - All Passes

Search period start: 19 May 2025 00:00
Search period end: 29 May 2025 00:00
Orbit: 620 x 651 km, 48.4° (Epoch: 18 May)

Date Brightness Start Highest point End Pass type
(mag) Time Alt. Az. Time Alt. Az. Time Alt. Az.
19 May - 00:38:54 10° WSW 00:42:11 19° SSW 00:45:29 10° SSE visible
19 May - 18:16:12 10° S 18:19:00 16° SE 18:21:50 10° ESE daylight
19 May - 19:55:51 10° SW 20:00:05 38° SSE 20:04:23 10° E daylight
19 May - 21:37:08 10° WSW 21:41:36 49° S 21:46:05 10° ESE daylight
19 May - 23:18:56 10° W 23:23:02 31° SSW 23:27:09 10° SE visible
20 May - 01:02:31 10° WSW 01:03:57 11° SW 01:05:24 10° SSW visible
20 May - 18:37:07 10° SSW 18:40:52 25° SSE 18:44:38 10° E daylight
20 May - 20:17:47 10° WSW 20:22:11 46° S 20:26:37 10° E daylight
20 May - 21:59:20 10° W 22:03:42 43° SSW 22:08:08 10° ESE visible
20 May - 23:41:27 10° W 23:44:57 21° SSW 23:48:30 10° SSE visible
21 May - 17:19:27 10° S 17:21:49 14° SE 17:24:11 10° ESE daylight
21 May - 18:58:40 10° SW 19:02:49 35° SSE 19:07:02 10° E daylight
21 May - 20:39:52 10° WSW 20:44:17 49° S 20:48:47 10° ESE daylight
21 May - 22:21:36 10° W 22:25:45 34° SSW 22:29:58 10° SE visible
22 May - 00:04:35 10° WSW 00:06:46 13° SW 00:08:57 10° S visible
22 May - 17:40:05 10° SSW 17:43:37 22° SSE 17:47:11 10° E daylight
22 May - 19:20:32 10° WSW 19:24:53 44° S 19:29:17 10° E daylight
22 May - 21:02:01 10° W 21:06:25 45° S 21:10:50 10° ESE daylight
22 May - 22:44:01 10° W 22:47:43 24° SSW 22:51:27 10° SSE visible
23 May - 16:22:55 10° SSE 16:24:38 12° SE 16:26:20 10° ESE daylight
23 May - 18:01:30 10° SW 18:05:33 32° SSE 18:09:40 10° E daylight
23 May - 19:42:34 10° WSW 19:47:00 49° S 19:51:27 10° ESE daylight
23 May - 21:24:16 10° W 21:28:29 36° SSW 21:32:45 10° SE daylight
23 May - 23:06:54 10° WSW 23:09:33 15° SW 23:12:14 10° S visible
24 May - 16:43:05 10° SSW 16:46:23 20° SSE 16:49:43 10° E daylight
24 May - 18:23:17 10° WSW 18:27:35 42° SSE 18:31:57 10° E daylight
24 May - 20:04:42 10° W 20:09:07 47° S 20:13:33 10° ESE daylight
24 May - 21:46:37 10° W 21:50:28 26° SSW 21:54:20 10° SSE daylight
25 May - 17:04:20 10° SW 17:08:17 29° SSE 17:12:16 10° E daylight
25 May - 18:45:17 10° WSW 18:49:41 48° S 18:54:08 10° ESE daylight
25 May - 20:26:54 10° W 20:31:11 39° SSW 20:35:30 10° SE daylight
25 May - 22:09:19 10° WSW 22:12:20 17° SW 22:15:22 10° S visible
26 May - 15:46:09 10° S 15:49:10 18° SE 15:52:11 10° ESE daylight
26 May - 17:26:02 10° SW 17:30:18 39° SSE 17:34:35 10° E daylight
26 May - 19:07:23 10° WSW 19:11:48 48° S 19:16:14 10° ESE daylight
26 May - 20:49:13 10° W 20:53:12 29° SSW 20:57:11 10° SE daylight
27 May - 16:07:12 10° SSW 16:11:01 27° SSE 16:14:51 10° E daylight
27 May - 17:47:59 10° WSW 17:52:22 47° S 17:56:47 10° E daylight
27 May - 19:29:34 10° W 19:33:54 41° SSW 19:38:14 10° ESE daylight
27 May - 21:11:47 10° WSW 21:15:05 20° SSW 21:18:24 10° SSE daylight
28 May - 14:49:17 10° S 14:51:56 15° SE 14:54:35 10° ESE daylight
28 May - 16:28:48 10° SW 16:33:00 37° SSE 16:37:12 10° E daylight
28 May - 18:10:04 10° WSW 18:14:28 48° S 18:18:55 10° ESE daylight
28 May - 19:51:51 10° W 19:55:54 32° SSW 20:00:00 10° SE daylight
28 May - 21:35:15 10° WSW 21:36:51 12° SW 21:38:27 10° SSW daylight
